カタログに戻る

STARLINK-11316

運用中通信VLEO
NORAD 61875·PAYLOAD·🇺🇸 United States

打ち上げ Nov 9, 2024 から Vandenberg Space Force Base

Loading…

次のパス (今後24時間)

TLE

最新Source: CelesTrak SupGP

元期: Sep 14, 2026, 20:37 UTC

1 61875C 24204B   26257.85951389 -.00029706  00000+0 -24463-3 0  2573
2 61875  53.1566 143.3880 0001200  89.7916 158.2243 15.69730907    18

AllMySatでSTARLINK-11316をリアルタイム追跡

Download on the App Store